Weather History for Tupelo, MS

Change the Weather History Date:

Sunday, July 14, 2013

  Actual Average Record
Temperature  
Mean Temperature 80 °F 82 °F  
Max Temperature 87 °F 92 °F 105 °F (1980)
Min Temperature 72 °F 71 °F 57 °F (1967)
Degree Days  
Heating Degree Days 0 0  
Month to date heating degree days 0 0  
Since 1 June heating degree days 0 0  
Since 1 July heating degree days 0 0  
Cooling Degree Days 15 17  
Month to date cooling degree days 201 227  
Year to date cooling degree days 863 899  
Since 1 June cooling degree days 617 622  
Growing Degree Days 30 (Base 50)    
Moisture  
Dew Point 69 °F    
Average Humidity 71    
Maximum Humidity 90    
Minimum Humidity 51    
Precipitation  
Precipitation 0.01 in 0.13 in 1.92 in (1936)
Month to date precipitation 0.30 1.88  
Year to date precipitation 30.77 31.00  
Snow  
Snow 0.00 in 0.00 in - ()
Month to date snowfall 0.0 0.0  
Since 1 June snowfall 0.0 0.0  
Since 1 July snowfall 0.0 0.0  
Snow Depth 0.00 in    
Sea Level Pressure  
Sea Level Pressure 30.03 in    
Wind  
Wind Speed 7 mph (ESE)    
Max Wind Speed 21 mph    
Max Gust Speed 25 mph    
Visibility 10 miles    
Events Rain , Thunderstorm    
T = Trace of Precipitation, MM = Missing Value Source: NWS Daily Summary

Daily Weather History Graph

Daily Weather History Graph

Search for Another Location

Airport:

Trip Planner

Search our weather history database for the weather conditions in past years. The results will help you decide how hot, cold, wet, or windy it might be!

Date:

Astronomy

Jul. 14, 2013 Rise Set
Actual Time 5:53 AM CDT 8:07 PM CDT
Civil Twilight 5:25 AM CDT 8:36 PM CDT
Nautical Twilight 4:50 AM CDT 9:11 PM CDT
Astronomical Twilight 4:12 AM CDT 9:49 PM CDT
Moon 11:51 AM CDT (7/14) 11:40 PM CDT (7/14)
Length of Visible Light 15h 11m
Length of Day
14h 14m
Waxing Crescent, 35% of the Moon is Illuminated
Jul 14
Waxing Crescent
Jul 15
First Quarter
Jul 22
Full
Jul 29
Last Quarter
Aug 6
New

Hourly Weather History & Observations

Time (CDT) Temp. Heat Index Dew Point Humidity Pressure Visibility Wind Dir Wind Speed Gust Speed Precip Events Conditions
12:23 AM 77.0 °F - 66.2 °F 69% 29.99 in 10.0 mi Calm Calm - N/A Thunderstorm Thunderstorm
12:53 AM 75.9 °F - 66.0 °F 71% 29.99 in 10.0 mi East 8.1 mph - N/A Thunderstorm Thunderstorm
1:18 AM 75.2 °F - 66.2 °F 73% 30.01 in 10.0 mi East 20.7 mph - N/A Thunderstorm Thunderstorm
1:51 AM 73.4 °F - 68.0 °F 83% 30.01 in 10.0 mi ESE 5.8 mph - N/A Thunderstorm Thunderstorm
1:53 AM 73.0 °F - 68.0 °F 84% 30.00 in 10.0 mi East 5.8 mph - N/A Thunderstorm Thunderstorm
2:37 AM 73.4 °F - 68.0 °F 83% 29.97 in 10.0 mi South 10.4 mph - N/A   Clear
2:53 AM 73.0 °F - 68.0 °F 84% 29.95 in 10.0 mi SSW 12.7 mph - N/A   Clear
3:53 AM 73.9 °F - 69.1 °F 85% 29.97 in 10.0 mi SSE 5.8 mph - N/A   Scattered Clouds
4:53 AM 73.0 °F - 68.0 °F 84% 29.99 in 10.0 mi South 5.8 mph - N/A   Clear
5:53 AM 73.0 °F - 68.0 °F 84% 30.01 in 10.0 mi SE 4.6 mph - N/A   Clear
6:53 AM 72.0 °F - 68.0 °F 87% 30.03 in 10.0 mi ENE 3.5 mph - N/A   Clear
7:21 AM 73.4 °F - 68.0 °F 83% 30.06 in 10.0 mi East 3.5 mph - N/A   Mostly Cloudy
7:53 AM 73.9 °F - 68.0 °F 82% 30.05 in 10.0 mi ENE 5.8 mph - N/A   Overcast
8:51 AM 75.2 °F - 69.8 °F 83% 30.07 in 10.0 mi Calm Calm - N/A   Partly Cloudy
8:53 AM 75.0 °F - 69.1 °F 82% 30.06 in 10.0 mi ENE 3.5 mph - N/A   Partly Cloudy
9:24 AM 78.8 °F - 69.8 °F 74% 30.07 in 10.0 mi SE 6.9 mph - N/A   Mostly Cloudy
9:53 AM 80.1 °F 82.9 °F 69.1 °F 69% 30.06 in 10.0 mi SSE 6.9 mph - N/A   Mostly Cloudy
10:09 AM 82.4 °F 86.3 °F 69.8 °F 66% 30.07 in 10.0 mi SSE 11.5 mph 18.4 mph N/A   Scattered Clouds
10:53 AM 81.0 °F 84.1 °F 69.1 °F 67% 30.06 in 10.0 mi SSE 9.2 mph - N/A   Mostly Cloudy
11:53 AM 81.0 °F 84.1 °F 69.1 °F 67% 30.06 in 10.0 mi SSE 6.9 mph - N/A   Mostly Cloudy
12:53 PM 84.0 °F 87.0 °F 68.0 °F 58% 30.06 in 10.0 mi South 8.1 mph - N/A   Scattered Clouds
1:53 PM 86.0 °F 88.8 °F 66.9 °F 53% 30.04 in 10.0 mi Variable 5.8 mph - N/A   Mostly Cloudy
2:53 PM 82.0 °F 87.4 °F 73.0 °F 74% 30.03 in 10.0 mi SE 4.6 mph - 0.01 in Rain Light Rain
3:18 PM 82.4 °F 87.2 °F 71.6 °F 70% 30.03 in 10.0 mi East 10.4 mph - 0.00 in   Mostly Cloudy
3:43 PM 82.4 °F 85.4 °F 68.0 °F 62% 30.03 in 10.0 mi ESE 9.2 mph - 0.00 in   Mostly Cloudy
3:53 PM 82.9 °F 85.8 °F 68.0 °F 60% 30.02 in 10.0 mi ESE 8.1 mph - 0.00 in   Scattered Clouds
4:53 PM 84.0 °F 87.8 °F 69.1 °F 61% 30.03 in 10.0 mi East 9.2 mph - N/A   Partly Cloudy
5:33 PM 82.4 °F 85.4 °F 68.0 °F 62% 30.04 in 10.0 mi ESE 10.4 mph - N/A Thunderstorm Clear
5:48 PM 82.4 °F 85.4 °F 68.0 °F 62% 30.03 in 10.0 mi ESE 6.9 mph - N/A   Clear
5:53 PM 82.9 °F 85.8 °F 68.0 °F 60% 30.02 in 10.0 mi SE 10.4 mph - N/A   Clear
6:53 PM 82.0 °F 85.5 °F 69.1 °F 65% 30.03 in 10.0 mi SE 5.8 mph - N/A   Clear
7:53 PM 80.1 °F 82.9 °F 69.1 °F 69% 30.05 in 10.0 mi ESE 10.4 mph - N/A   Clear
8:53 PM 79.0 °F - 71.1 °F 77% 30.06 in 10.0 mi ESE 5.8 mph - N/A   Clear
9:53 PM 78.1 °F - 71.1 °F 79% 30.06 in 10.0 mi ESE 5.8 mph - N/A   Clear
10:53 PM 77.0 °F - 71.1 °F 82% 30.06 in 10.0 mi East 4.6 mph - N/A   Clear
11:53 PM 75.0 °F - 71.1 °F 87% 30.08 in 10.0 mi East 3.5 mph - N/A   Clear